This demonstration page uses our WeatherBlox Daily Observations layout. Learn more.

Left ArrowRight Arrow

38.80484, -77.04692

Hourly Observations for May 27, 2021

Temp ( °F °C ) Dew Point ( °F °C ) Humidity (%) Winds ( mph kmh ) Pressure ( in mb ) Visibility ( mi km ) Precip ( " mm )
12:52 am 00:52 Partly Cloudy 73 22.8 64 17.8 74 74 NW 7 11 29.98 1015 10 16 N/A
1:52 am 01:52 Partly Cloudy 72 22.2 64 17.8 76 76 NW 3 6 29.98 1015 10 16 N/A
2:52 am 02:52 Mostly Cloudy 72 22.2 62 16.7 71 71 W 8 13 29.98 1015 10 16 N/A
3:52 am 03:52 Mostly Cloudy 72 22.2 61 16.1 68 68 WNW 8 13 29.99 1016 10 16 N/A
4:52 am 04:52 Mostly Cloudy 72 22.2 61 16.1 68 68 WNW 8 13 29.99 1016 10 16 N/A
5:52 am 05:52 Mostly Cloudy 70 21.1 61 16.1 73 73 WSW 3 6 30.01 1016 10 16 N/A
6:52 am 06:52 Partly Cloudy 71 21.7 62 16.7 73 73 N N/A 30.02 1017 10 16 N/A
7:52 am 07:52 Mostly Sunny 74 23.3 61 16.1 64 64 WNW 6 9 30.03 1017 10 16 N/A
8:52 am 08:52 Mostly Sunny 77 25 62 16.7 60 60 NNW 10 17 30.04 1017 10 16 N/A
9:52 am 09:52 Mostly Sunny 79 26.1 63 17.2 58 58 NNW 17 28 30.04 1017 10 16 N/A
10:52 am 10:52 Partly Cloudy 80 26.7 63 17.2 56 56 N 9 15 30.04 1017 10 16 N/A
11:52 am 11:52 Partly Cloudy 81 27.2 62 16.7 53 53 N 8 13 30.04 1017 10 16 N/A
12:52 pm 12:52 Partly Cloudy 81 27.2 57 13.9 44 44 NW 15 24 30.04 1017 10 16 N/A
1:52 pm 13:52 Partly Cloudy 84 28.9 56 13.3 38 38 WNW 8 13 30.01 1016 10 16 N/A
2:52 pm 14:52 Mostly Sunny 84 28.9 55 12.8 37 37 VRB 5 7 29.98 1015 10 16 N/A
3:52 pm 15:52 Partly Cloudy 84 28.9 56 13.3 38 38 WSW 10 17 29.97 1015 10 16 N/A
4:52 pm 16:52 Partly Cloudy 85 29.4 52 11.1 32 32 W 9 15 29.96 1015 10 16 N/A
5:52 pm 17:52 Mostly Cloudy 84 28.9 53 11.7 34 34 NW 10 17 29.96 1014 10 16 N/A
6:52 pm 18:52 Mostly Cloudy 82 27.8 54 12.2 38 38 N 8 13 29.95 1014 10 16 N/A
7:52 pm 19:52 Mostly Cloudy 79 26.1 54 12.2 42 42 N 7 11 29.96 1014 10 16 N/A
8:52 pm 20:52 Mostly Cloudy 78 25.6 55 12.8 45 45 N 7 11 29.96 1015 10 16 N/A
9:52 pm 21:52 Mostly Cloudy 77 25 59 15 54 54 N N/A 29.98 1015 10 16 N/A
10:52 pm 22:52 Mostly Cloudy 74 23.3 59 15 60 60 NNW 5 7 29.99 1016 10 16 N/A
11:52 pm 23:52 Mostly Cloudy 73 22.8 58 14.4 59 59 NNW 6 9 30.00 1016 10 16 N/A

Powered by AerisWeather